Weather History for McCook, NE

Change the Weather History Date:

Friday, October 12, 2012

  Actual Average Record
Temperature  
Mean Temperature 41 °F 53 °F  
Max Temperature 53 °F 68 °F 93 °F (1975)
Min Temperature 29 °F 38 °F 12 °F (1909)
Degree Days  
Heating Degree Days 24    
Moisture  
Dew Point 30 °F    
Average Humidity 66    
Maximum Humidity 79    
Minimum Humidity 54    
Precipitation  
Precipitation 0.00 in 0.06 in 1.02 in (2007)
Month to date precipitation 0.32 0.70  
Year to date precipitation 7.91 19.85  
Sea Level Pressure  
Sea Level Pressure 30.19 in    
Wind  
Wind Speed 7 mph (ESE)    
Max Wind Speed 16 mph    
Max Gust Speed -    
Visibility 10 miles    
Events      
T = Trace of Precipitation, MM = Missing Value Source: NWS Daily Summary

Daily Weather History Graph

Daily Weather History Graph

Search for Another Location

Airport:

Trip Planner

Search our weather history database for the weather conditions in past years. The results will help you decide how hot, cold, wet, or windy it might be!

Date:

Astronomy

Oct. 12, 2012 Rise Set
Actual Time 7:50 AM CDT 7:06 PM CDT
Civil Twilight 7:23 AM CDT 7:33 PM CDT
Nautical Twilight 6:51 AM CDT 8:04 PM CDT
Astronomical Twilight 6:20 AM CDT 8:36 PM CDT
Moon 4:35 AM CDT (10/12) 5:17 PM CDT (10/12)
Length of Visible Light 12h 10m
Length of Day
11h 15m
Waning Crescent, 10% of the Moon is Illuminated
Oct 12
Waning Crescent
Oct 15
New
Oct 21
First Quarter
Oct 29
Full
Nov 6
Last Quarter

Hourly Weather History & Observations

Time (CDT) Temp. Windchill Dew Point Humidity Pressure Visibility Wind Dir Wind Speed Gust Speed Precip Events Conditions
12:53 AM 35.1 °F 30.1 °F 24.1 °F 64% 30.34 in 10.0 mi NNE 5.8 mph - N/A   Clear
1:53 AM 34.0 °F 25.5 °F 24.1 °F 67% 30.33 in 10.0 mi North 11.5 mph - N/A   Clear
2:53 AM 37.4 °F 32.8 °F 24.8 °F 60% 30.33 in 10.0 mi North 5.8 mph - N/A   Clear
3:53 AM 33.1 °F 26.9 °F 24.1 °F 70% 30.34 in 10.0 mi North 6.9 mph - N/A   Clear
4:53 AM 32.0 °F 25.6 °F 25.0 °F 75% 30.32 in 10.0 mi North 6.9 mph - N/A   Clear
5:53 AM 30.9 °F 25.2 °F 24.1 °F 76% 30.32 in 10.0 mi North 5.8 mph - N/A   Clear
6:53 AM 30.0 °F 26.5 °F 24.1 °F 79% 30.31 in 10.0 mi NNE 3.5 mph - N/A   Clear
7:53 AM 30.0 °F 25.2 °F 24.1 °F 79% 30.32 in 10.0 mi NE 4.6 mph - N/A   Clear
8:53 AM 33.1 °F - 26.1 °F 75% 30.34 in 10.0 mi Calm Calm - N/A   Overcast
9:11 AM 33.8 °F 29.6 °F 26.6 °F 75% 30.28 in 10.0 mi East 4.6 mph - N/A   Overcast
9:53 AM 35.1 °F 31.0 °F 25.0 °F 67% 30.31 in 10.0 mi East 4.6 mph - N/A   Overcast
10:17 AM 35.6 °F 30.7 °F 24.8 °F 65% 30.26 in 10.0 mi East 5.8 mph - N/A   Overcast
10:53 AM 36.0 °F 32.1 °F 25.0 °F 64% 30.30 in 10.0 mi East 4.6 mph - N/A   Overcast
11:53 AM 37.9 °F 35.5 °F 27.0 °F 65% 30.28 in 10.0 mi ESE 3.5 mph - N/A   Overcast
12:09 PM 39.2 °F 35.9 °F 28.4 °F 65% 30.22 in 10.0 mi East 4.6 mph - N/A   Overcast
12:53 PM 39.9 °F 33.9 °F 30.0 °F 68% 30.26 in 9.0 mi South 9.2 mph - N/A   Overcast
1:53 PM 42.1 °F 37.1 °F 30.9 °F 65% 30.22 in 10.0 mi SSE 8.1 mph - N/A   Overcast
2:53 PM 45.0 °F 39.3 °F 32.0 °F 60% 30.18 in 10.0 mi South 11.5 mph - N/A   Overcast
3:53 PM 48.0 °F - 33.1 °F 56% 30.11 in 10.0 mi South 12.7 mph - N/A   Overcast
4:35 PM 48.2 °F - 33.8 °F 58% 30.04 in 10.0 mi SE 10.4 mph - N/A   Scattered Clouds
4:53 PM 50.0 °F - 34.0 °F 54% 30.06 in 10.0 mi ESE 10.4 mph - N/A   Clear
5:53 PM 51.1 °F - 35.1 °F 54% 30.05 in 10.0 mi SSE 11.5 mph - N/A   Clear
6:53 PM 52.0 °F - 36.0 °F 54% 30.02 in 10.0 mi SE 16.1 mph - N/A   Clear
7:53 PM 48.9 °F - 36.0 °F 61% 30.06 in 10.0 mi South 9.2 mph - N/A   Clear
8:53 PM 48.2 °F - 35.6 °F 62% 29.99 in 10.0 mi SSE 9.2 mph - N/A   Clear
9:53 PM 45.0 °F 41.8 °F 37.0 °F 74% 30.00 in 10.0 mi SE 5.8 mph - N/A   Clear
10:53 PM 52.0 °F - 41.0 °F 66% 29.98 in 10.0 mi SSE 11.5 mph - N/A   Overcast
11:05 PM 51.8 °F - 42.8 °F 71% 29.95 in 10.0 mi SSE 11.5 mph - N/A   Overcast
11:53 PM 51.1 °F - 42.1 °F 71% 29.95 in 10.0 mi SSE 5.8 mph - N/A   Overcast